User: anonymous   Login
Location: Unspecified
(0.0000°N, 0.0000°E)
Time: 03:32:15
(UTC+00:00)
Language:

UKube-1 - Orbit

View from above orbital plane
View from above orbital plane
View from above satellite
View from above satellite

Ground track
Ground track

The orbit data is extracted from the following two-line orbital elements,

1 40074U 14037F   17112.84903302 +.00000314 +00000-0 +45355-4 0  9995
2 40074 098.3394 225.3047 0003944 213.3366 146.7587 14.83446229150973
Epoch (UTC): 22 April 2017 20:22:36
Eccentricity: 0.0003944
inclination: 98.3394°
perigee height: 616 km
apogee height: 621 km
right ascension of ascending node: 225.3047°
argument of perigee: 213.3366°
revolutions per day: 14.83446229
mean anomaly at epoch: 146.7587°
orbit number at epoch: 15097

The dashed part of the orbit path shows where the satellite is in the earth's shadow,  

DLR